Theta_e
346 333 340 343 343 343 343 343 343 342 338 332 331 332 335 338 331 330 334 336 340 341 341 338 337 338 338 334 335 327 330 326 325 324 336 335 331 325 341 342 344 327 324
346 332 337 340 341 340 339 339 343 343 342 338 333 338 339 337 333 332 335 339 336 337 339 341 339 341 341 329 327 328 332 324 336 337 326 324 324 336 339 342 344 321 323
348 332 333 335 335 334 334 336 338 339 341 341 340 339 338 335 332 338 338 338 338 337 338 337 339 341 338 329 328 340 330 335 341 344 343 331 337 343 344 340 326 336 328
348 340 332 332 332 332 333 335 336 336 337 337 337 336 336 337 333 337 335 339 332 338 337 339 341 332 326 341 332 337 333 339 341 344 345 341 325 323 335 334 330 327 321
349 347 334 332 332 332 333 334 335 336 336 337 337 336 339 341 339 333 338 339 339 337 338 338 337 330 325 337 334 338 332 341 343 344 341 339 332 326 322 328 332 336 339
349 349 337 334 333 332 333 334 335 336 337 338 337 340 342 341 342 342 340 338 338 334 338 336 330 327 327 329 329 331 332 341 343 344 343 340 342 327 340 342 335 337 337
350 349 341 337 335 333 333 333 334 335 338 342 338 338 337 340 340 341 341 340 339 335 339 341 330 333 333 333 327 329 341 344 342 344 339 343 343 339 326 335 341 338 326
356 353 345 340 338 336 335 334 333 334 336 338 338 338 337 339 338 339 341 340 341 339 334 341 332 339 335 335 331 329 337 341 346 346 343 342 340 328 322 328 327 325 323
355 350 341 341 341 340 339 336 335 336 339 340 340 339 338 338 339 339 339 340 339 340 337 333 342 332 331 332 331 337 331 341 346 344 342 343 333 323 331 323 324 331 326
354 353 351 339 341 340 341 340 339 339 340 340 340 340 340 339 338 338 339 340 339 339 340 336 332 341 332 333 335 340 338 342 344 345 344 343 343 338 324 326 324 326 331
350 354 350 342 349 348 348 341 340 339 339 340 340 339 338 339 343 345 347 344 346 338 339 340 335 342 332 335 336 341 339 342 346 347 347 345 342 333 326 325 329 328 325
347 351 352 350 350 350 352 347 343 339 338 340 347 348 346 346 349 350 347 346 343 339 336 338 339 339 333 333 336 336 335 341 344 346 346 346 344 342 329 325 329 326 326
349 348 353 352 351 348 352 349 346 348 350 349 348 348 341 348 348 347 345 345 346 339 336 339 339 339 340 341 346 346 343 339 344 344 347 345 346 340 333 333 329 325 327
350 350 350 350 350 349 349 349 345 344 352 348 346 339 337 343 343 345 349 345 346 345 345 348 347 346 346 344 347 346 346 346 344 344 346 345 344 345 335 338 340 338 332
351 351 351 351 351 348 351 349 350 350 347 337 336 335 337 342 347 347 345 348 347 348 346 345 348 346 347 346 346 350 348 347 346 345 345 344 345 346 342 339 341 342 340
351 352 353 353 350 348 347 350 349 350 350 349 339 337 341 338 339 345 345 345 347 344 346 343 348 346 346 345 345 345 345 345 345 346 346 346 345 346 346 340 341 342 343
351 352 354 354 349 343 346 347 349 348 348 349 347 343 345 343 339 339 345 342 346 343 340 340 342 346 348 345 349 346 346 346 345 346 347 345 346 346 346 346 342 339 341
352 353 353 356 355 350 348 350 347 347 347 347 346 345 345 342 343 341 341 345 345 344 340 341 343 343 343 347 345 346 348 348 347 346 345 349 347 345 345 345 346 346 341
352 353 354 356 356 355 355 351 349 348 344 347 346 348 348 347 345 342 341 344 346 344 341 343 344 343 342 342 347 345 344 345 345 345 348 346 345 349 349 346 348 345 345
353 353 355 357 358 357 356 351 350 342 347 348 350 348 349 346 345 343 341 343 346 344 341 341 343 344 344 345 345 347 347 345 347 344 344 346 347 344 345 347 348 348 347
353 356 357 356 354 355 357 352 350 341 344 348 351 349 347 340 344 343 343 342 345 343 339 339 341 344 347 347 347 344 344 346 347 347 345 347 346 347 344 347 345 343 344
353 355 359 351 347 352 354 348 345 343 343 348 351 350 348 345 345 343 344 341 343 341 339 339 338 338 340 342 343 344 345 343 342 345 346 348 347 346 347 346 345 342 342
353 356 358 349 349 354 352 340 345 342 335 343 348 348 346 343 345 346 341 342 341 340 340 340 339 338 340 340 342 341 344 345 344 344 345 347 346 346 341 340 349 346 347
353 358 358 349 352 346 340 337 340 350 351 352 351 351 348 348 344 346 346 342 340 341 341 341 341 339 339 340 342 343 341 339 342 343 344 348 346 345 347 347 346 344 344
354 360 356 354 351 339 336 340 353 350 351 352 353 351 347 348 345 345 344 345 343 343 343 341 342 342 341 340 341 343 344 343 342 342 344 344 345 343 341 339 338 341 342
358 361 358 350 345 339 336 337 344 352 351 352 349 349 349 347 344 346 345 343 343 342 342 340 339 339 340 340 338 337 344 346 345 344 344 344 343 344 344 342 341 341 342
Wind_Speed
14 18 16 15 14 12 11 10 10 10 8 9 9 7 7 8 8 8 8 7 7 7 7 8 7 5 6 7 6 8 10 10 11 13 14 14 14 15 15 16 12 7 12
16 18 17 15 14 12 11 10 10 9 8 8 8 6 6 6 7 7 7 7 6 6 7 6 6 6 6 6 7 12 13 13 13 14 13 15 17 16 16 15 12 7 11
16 17 17 14 13 12 11 12 11 10 8 7 6 5 5 5 6 8 7 6 6 5 5 6 7 6 4 7 11 11 15 19 18 19 17 11 13 13 13 14 6 9 10
14 15 16 14 13 11 11 12 11 10 9 8 6 5 4 5 6 6 6 5 5 6 6 7 6 5 5 8 10 11 18 20 18 14 11 5 6 9 9 8 7 10 9
13 14 11 13 12 11 10 11 10 9 8 7 6 5 5 5 4 5 5 6 6 5 5 6 3 4 7 9 10 11 17 18 16 15 15 4 2 9 10 10 9 10 11
15 13 7 11 11 11 9 10 9 8 7 7 7 5 5 4 4 4 4 5 5 4 4 5 3 6 9 9 10 11 16 16 14 14 5 5 3 6 9 8 8 8 9
15 10 6 9 10 10 10 8 8 7 6 5 5 4 4 5 4 5 4 3 4 4 4 4 4 6 9 9 9 12 16 13 12 11 7 3 3 4 4 8 7 6 5
17 8 9 10 10 10 9 9 8 7 6 5 4 3 3 5 3 2 2 3 3 4 4 3 5 7 8 8 10 12 13 14 7 7 2 5 4 3 4 5 7 5 5
18 11 8 10 11 11 10 9 8 7 6 5 4 4 4 5 3 2 2 3 3 4 5 5 6 5 7 8 10 9 10 8 9 10 7 6 2 2 3 4 6 6 5
13 8 6 11 13 11 11 10 9 7 6 5 4 4 4 4 4 3 2 3 4 4 4 4 6 6 6 10 9 5 7 10 9 7 3 8 6 8 4 4 4 5 4
10 13 7 6 9 7 9 9 9 8 8 8 5 3 4 4 2 3 3 4 5 5 6 6 7 7 7 8 8 6 6 9 6 3 4 13 7 6 6 6 5 5 5
12 11 10 7 8 9 8 6 5 9 8 3 3 3 7 4 7 10 10 8 5 7 7 8 7 9 9 8 4 5 4 6 3 5 10 11 6 8 8 6 6 6 6
13 12 10 10 6 7 12 10 5 7 6 7 7 9 8 13 10 6 9 8 8 7 8 4 6 8 6 9 12 11 2 3 6 13 7 2 8 9 10 6 5 7 7
15 14 13 13 12 13 9 9 7 8 15 17 14 8 10 10 12 12 10 11 8 4 4 12 4 1 2 6 10 8 10 10 12 10 10 12 11 11 12 10 8 7 7
17 16 14 16 16 17 15 13 10 10 11 16 13 9 5 3 9 11 15 6 10 10 8 13 11 12 11 9 15 8 5 12 11 11 12 13 13 12 12 12 11 10 9
17 17 18 19 17 18 21 18 16 17 12 14 15 16 14 7 11 15 14 16 12 18 14 14 11 11 6 8 6 10 9 9 11 12 13 14 15 12 11 13 14 12 11
20 19 20 18 15 14 14 16 14 16 17 16 15 13 16 14 14 17 20 19 20 20 18 15 15 10 10 8 12 12 14 13 15 15 14 19 15 14 14 12 11 14 13
21 22 22 16 16 13 13 13 15 14 12 13 16 14 14 13 15 20 21 18 18 16 16 16 16 19 18 14 10 10 11 12 14 14 18 14 18 18 18 17 15 11 12
23 24 23 19 18 15 17 16 12 14 8 9 11 8 13 11 14 15 20 23 16 15 15 13 14 16 16 15 11 14 14 14 15 14 18 17 19 17 16 17 16 13 11
25 26 24 22 17 18 18 14 12 13 9 6 5 6 13 16 10 11 18 22 22 21 18 13 13 13 13 11 10 11 16 18 16 20 20 21 23 21 23 21 19 15 14
28 24 26 24 23 23 20 17 14 13 12 7 5 12 16 13 7 6 12 23 23 25 20 17 13 12 11 7 15 19 21 20 19 24 23 17 22 25 26 23 25 22 20
30 29 25 24 22 21 19 14 16 15 11 8 7 14 12 8 8 5 7 23 23 22 20 19 20 15 13 12 16 15 16 19 19 25 18 19 20 27 25 14 15 17 21
31 30 29 22 20 19 14 12 16 13 10 12 11 10 7 6 6 3 4 13 20 21 20 20 22 19 17 13 16 15 7 6 9 10 15 15 10 19 24 11 6 8 10
31 31 28 20 22 15 13 9 8 5 8 7 8 7 8 8 7 5 5 10 14 15 16 18 16 19 17 17 16 13 14 18 13 5 9 12 12 10 14 18 20 9 10
29 31 26 23 23 12 7 7 9 6 7 8 7 8 11 11 9 8 8 11 10 12 12 13 14 16 16 17 15 13 15 17 18 18 14 18 11 7 6 10 10 11 9
32 33 25 27 22 12 9 8 16 16 11 10 10 8 12 12 12 12 13 11 9 9 9 10 10 12 14 16 16 15 18 14 13 12 11 6 9 10 8 8 8 8 8
Wind_Direction
142 145 142 136 134 134 130 126 124 117 120 122 126 119 98 80 78 84 91 94 93 86 100 112 105 85 82 106 114 118 120 114 121 127 126 122 119 111 111 104 101 107 118
140 151 146 143 138 133 134 133 132 127 126 122 125 115 99 80 78 88 103 100 89 83 93 110 97 108 95 103 108 112 103 97 105 104 98 110 118 118 119 121 147 113 116
138 149 147 147 141 136 133 134 135 131 132 128 126 111 101 84 94 97 97 99 92 86 103 113 111 114 114 114 120 113 99 98 100 98 90 68 124 126 124 136 115 119 115
136 140 147 145 141 140 136 134 135 132 134 134 129 117 106 102 97 106 104 101 91 100 104 115 112 113 123 132 128 117 110 106 100 93 104 80 103 128 131 132 113 119 108
134 147 142 142 143 142 139 133 135 132 133 134 129 122 116 108 110 111 110 102 103 111 115 119 124 127 140 151 142 124 119 103 94 84 89 160 37 115 119 124 116 115 102
138 171 161 150 150 149 145 144 138 138 137 135 134 126 109 116 120 108 119 124 115 121 123 114 113 135 136 142 139 127 122 118 98 90 127 159 195 115 132 122 124 121 134
143 178 165 158 159 157 154 155 150 149 145 143 141 134 127 131 125 113 115 136 133 125 138 123 117 135 145 147 140 129 130 112 111 112 116 175 251 261 156 141 139 136 130
157 170 165 168 167 166 165 166 170 164 165 158 161 153 143 159 142 141 146 144 153 156 153 139 140 158 163 162 148 136 135 132 114 125 168 250 306 222 176 159 160 145 138
152 168 152 180 172 173 174 176 181 180 179 174 176 184 200 207 212 199 192 203 185 181 166 185 172 174 179 174 167 158 151 154 147 144 207 241 295 280 200 173 167 160 149
156 140 213 186 182 176 176 180 187 192 191 189 195 208 219 247 258 242 248 230 218 205 195 184 180 184 193 188 184 184 148 157 150 129 257 241 261 310 258 202 174 182 172
183 175 204 211 188 177 183 184 192 196 202 206 206 225 258 255 230 304 257 235 261 243 215 204 190 195 201 199 199 189 169 155 157 243 274 236 249 307 278 237 213 206 204
180 187 194 182 187 189 193 220 220 199 200 155 203 320 314 216 231 219 251 246 277 264 238 222 210 208 206 196 204 225 230 186 216 313 302 220 254 303 286 251 233 227 221
183 184 199 178 199 158 178 208 272 195 202 231 192 226 282 219 225 222 236 266 274 262 248 223 250 236 227 182 241 265 333 217 273 282 154 262 310 304 274 259 249 241 237
183 189 190 196 193 188 202 230 257 221 201 225 216 238 322 221 222 208 223 254 243 246 185 238 259 344 172 196 233 249 221 240 251 255 263 289 286 295 273 257 254 252 250
183 188 189 198 210 199 190 205 228 241 238 234 219 254 273 227 232 238 209 215 235 217 217 223 217 215 226 211 222 212 224 244 226 234 256 270 269 278 280 258 260 254 250
187 189 197 208 213 205 200 201 207 211 247 257 248 249 262 269 242 235 221 217 224 232 232 216 211 215 232 239 225 229 224 236 249 235 255 268 269 278 281 273 268 263 254
188 191 203 210 219 208 209 209 221 220 217 241 253 259 263 268 267 246 229 219 217 234 235 222 220 210 221 226 233 232 240 233 244 237 247 260 270 272 272 275 271 265 268
188 192 202 198 221 221 215 219 216 231 231 249 258 269 269 278 272 249 232 216 228 227 225 233 220 218 207 230 231 232 255 247 249 268 240 230 258 264 265 269 272 273 265
193 194 197 200 212 232 226 226 240 226 247 243 260 273 281 284 294 249 226 206 221 227 220 223 214 220 223 228 239 245 261 264 266 257 259 251 236 256 268 268 274 251 261
195 200 201 198 210 229 236 240 249 308 256 243 238 275 257 289 290 242 219 203 212 226 218 221 220 217 226 227 235 255 262 265 254 262 259 253 258 239 246 254 256 246 248
194 197 197 205 212 225 228 246 234 255 227 225 195 231 267 293 311 258 232 209 210 222 218 223 220 220 226 234 254 259 254 253 261 257 255 259 258 250 240 245 243 246 250
197 199 206 213 220 222 231 242 247 240 231 188 199 247 266 275 300 276 223 198 214 217 215 224 230 240 244 235 256 268 272 274 263 256 250 244 254 245 235 232 241 248 262
197 197 205 218 219 227 236 252 253 262 230 228 237 255 290 263 270 292 222 207 216 223 231 236 242 240 246 252 266 259 263 252 276 264 259 268 227 259 279 273 292 283 252
194 194 208 221 218 226 236 261 237 228 241 234 228 249 255 273 250 247 237 225 219 233 234 236 231 232 244 260 261 254 256 267 270 318 271 240 262 234 217 237 256 264 269
191 188 205 215 214 228 252 233 235 267 231 266 242 239 220 247 231 239 239 232 222 220 220 220 227 243 246 245 248 255 268 273 254 255 256 236 237 251 261 253 261 273 275
190 194 199 208 210 231 218 235 214 221 225 240 235 230 233 250 231 218 232 233 222 214 220 226 233 237 242 244 242 243 247 258 256 255 254 235 251 263 258 265 275 276 265